This is the latest recevied weather packets stored in our database for station/object WW5JC. If no packets are shown the sender has not sent any weather packets the latest 10 day(s).
| Time | Temp. | Humidity | Pressure | Rain* | Wind** | Luminosity | Snow |
|---|---|---|---|---|---|---|---|
| 1777590504 | 16.67° C | 73% | 1016.2 hPa | 0 mm | - | 89 W/m² | - |
| 1777590200 | 17.22° C | 76% | 1016.4 hPa | 0 mm | - | 76 W/m² | - |
| 1777589898 | 17.22° C | 74% | 1016.3 hPa | 0 mm | - | 89 W/m² | - |
| 1777589593 | 16.67° C | 75% | 1016.4 hPa | 0 mm | - | 82 W/m² | - |
| 1777589291 | 17.22° C | 75% | 1016.2 hPa | 0 mm | - | 85 W/m² | - |
| 1777588988 | 17.22° C | 76% | 1016.3 hPa | 0 mm | - | 85 W/m² | - |
| 1777588684 | 17.22° C | 76% | 1016.3 hPa | 0 mm | - | 88 W/m² | - |
| 1777588379 | 17.22° C | 74% | 1016.2 hPa | 0 mm | - | 112 W/m² | - |
| 1777588076 | 17.22° C | 75% | 1016.3 hPa | 0 mm | - | 136 W/m² | - |
| 1777587772 | 17.22° C | 73% | 1016.4 hPa | 0 mm | - | 148 W/m² | - |
| 1777587470 | 17.22° C | 76% | 1016.7 hPa | 0 mm | - | 118 W/m² | - |
| 1777587168 | 17.22° C | 75% | 1017.1 hPa | 0 mm | - | 102 W/m² | - |
| 1777586863 | 17.22° C | 75% | 1016.6 hPa | 0 mm | - | 93 W/m² | - |
| 1777586559 | 17.22° C | 74% | 1016.6 hPa | 0 mm | - | 102 W/m² | - |
| 1777586255 | 17.22° C | 76% | 1016.3 hPa | 0 mm | - | 121 W/m² | - |
| 1777585952 | 17.22° C | 77% | 1015.9 hPa | 0 mm | - | 129 W/m² | - |
| 1777585648 | 17.22° C | 77% | 1016.1 hPa | 0 mm | - | 75 W/m² | - |
| 1777585343 | 17.22° C | 75% | 1016 hPa | 0 mm | - | 76 W/m² | - |
| 1777585038 | 17.22° C | 75% | 1015.8 hPa | 0 mm | - | 74 W/m² | - |
| 1777584734 | 17.22° C | 75% | 1015.6 hPa | 0 mm | - | 97 W/m² | - |
| 1777584433 | 17.22° C | 75% | 1015.7 hPa | 0 mm | - | 117 W/m² | - |
| 1777584128 | 17.22° C | 78% | 1015.9 hPa | 0 mm | - | 86 W/m² | - |
| 1777583828 | 17.22° C | 76% | 1015.9 hPa | 0 mm | - | 95 W/m² | - |
| 1777583523 | 17.22° C | 77% | 1015.8 hPa | 0 mm | - | 99 W/m² | - |
| 1777583217 | 17.22° C | 76% | 1015.5 hPa | 0 mm | - | 111 W/m² | - |
* Rain latest hour (hover to see other rain measurements)
** Current wind speed in m/s (hover to see current wind gust speed)